全球星 M039星 (GLOBALSTAR M039)

导读 | 星芒AI

GLOBALSTAR M039 是 Globalstar 卫星通信公司部署的一颗低轨移动通信卫星,属于其第二代卫星星座(Globalstar 2)的一部分。该卫星运行在约1414公里高度的近极地轨道,主要用于提供全球范围的语音和数据通信服务,特别是在偏远地区。M039 卫星采用先进通信技术,支持点对点通信和移动终端连接,增强了系统的可靠性和覆盖能力,为海事、航空和陆地用户提供关键通信保障。

基本信息
目录编号:
25961
目录名称:
GLOBALSTAR M039
国际标识:
1999-062A
轨道中心:
EARTH
卫星名称:
全球星 M039星
卫星全名:
全球星 M039星 (GLOBALSTAR M039)
卫星状态:
在轨 (已飞行9473 天)
发射日期:
1999-11-22 UTC
国别 :
(GLOB)
星等 :
--
轨道信息
数据来源 国际轨道数据 AOE轨道数据
星历时间 2025-10-28T20:05:45+0800
1天前
查看轨道信息
2025-10-25T22:00:00+0800
4天前
查看轨道信息
半长轴 7791.458km 7791.462km
偏心率 0.0002117 0.0002202
轨道倾角 51.984° 51.984°
近地点辐角 297.817° 289.541°
升交点赤经 222.656° 231.552°
平近点角 62.248° 111.388°
近地点 1411.673km 1411.611km
远地点 1414.973km 1415.043km
周期 114.074分钟 114.074分钟
每日圈数 12.623352 12.623342
详细信息
固有亮度:
5
最大亮度:
7.9
平衡模式:
三轴稳定
覆盖范围:
全球
运营商:
全球星公司
运营商所在国:
美国
使用方式:
暂无
卫星简介
全球星星座由48颗卫星加8颗备份星组成。这些卫星分布在8个倾角为52度的圆形轨道平面上,每个轨道平面6颗卫星,另有1 颗备用星。轨道高度约为1414km,传输时延和处理时延小于300ms,整个系统的覆盖区为南北纬70度以内的地区。该卫星已退役。
2D轨道图
3D轨道图
轨道高度分析图
轨道倾角分析图
轨道综合分析图
查看轨道综合分析图